Cloud_Cover
60 70 96 100 5 5 5 3 11 0 0 0 0 0 0 0 0 0 0 0 0 0 0 0 0 0 0 0 0 0 0 10 1 1 66 96 39 87 100 100 71 79 3 0 0
9 49 26 6 3 2 1 3 4 0 0 0 0 0 0 1 0 0 0 0 0 0 0 0 0 0 0 0 0 0 0 18 0 4 4 100 5 84 95 100 100 45 31 43 100
5 6 5 5 5 0 0 0 0 0 0 0 0 0 0 0 0 0 0 0 0 0 0 0 0 0 0 0 0 0 0 0 0 36 30 100 7 99 95 100 100 100 21 95 100
5 5 5 3 0 0 0 0 0 0 0 0 0 1 0 0 0 0 0 0 0 0 0 0 0 0 0 0 0 0 0 0 0 1 18 71 100 96 97 100 100 100 100 100 100
5 5 23 5 2 5 5 3 0 0 0 0 2 2 0 0 0 0 0 0 0 0 0 0 0 0 0 0 0 0 0 0 0 0 1 2 89 5 41 100 100 100 100 100 100
5 5 5 10 60 3 0 0 0 0 0 0 17 1 0 0 0 0 0 0 0 0 0 0 0 0 0 0 0 0 0 0 0 0 0 0 0 0 0 24 98 100 100 100 100
5 5 5 5 5 5 2 0 0 0 0 0 0 0 0 0 0 0 0 0 0 0 0 0 0 0 0 0 0 0 0 0 0 0 0 0 0 0 0 62 100 100 100 100 100
5 3 0 0 0 3 0 0 0 0 0 0 1 0 0 0 0 2 5 0 0 0 0 0 0 0 0 0 0 0 0 0 0 0 0 0 0 0 0 57 26 85 90 14 6
1 4 2 1 4 0 0 0 0 0 0 0 2 0 0 1 6 6 22 0 0 0 0 0 0 0 0 0 0 0 0 0 0 0 0 0 0 0 0 0 53 48 7 47 25
1 0 0 0 0 0 0 0 0 0 12 5 8 0 0 82 98 66 82 2 4 0 0 0 0 0 0 0 0 0 0 0 0 0 0 0 0 0 0 4 0 88 100 100 42
0 0 0 0 0 0 0 0 0 0 0 0 57 2 0 64 100 100 6 5 3 0 0 0 0 0 0 0 0 0 0 0 0 1 0 0 0 0 0 8 100 98 80 35 74
0 0 0 0 0 0 0 0 0 0 0 1 13 31 10 10 100 100 52 11 5 2 0 0 0 0 0 0 0 0 0 0 0 3 19 1 0 0 0 6 94 7 5 2 0
0 0 0 0 0 0 0 0 0 0 0 0 5 24 56 45 100 100 98 15 6 5 5 5 0 0 0 0 0 0 0 0 0 1 2 1 0 0 0 0 7 4 0 0 0
0 0 0 0 0 0 0 0 0 0 0 0 5 5 47 100 100 100 100 97 5 5 5 7 0 0 0 0 0 0 0 0 0 0 0 0 0 0 0 0 11 0 0 0 0
0 0 0 0 0 0 0 0 0 0 0 0 0 14 5 91 100 73 100 97 100 7 5 25 5 3 0 0 0 0 0 0 0 0 0 0 0 0 0 0 5 0 0 0 0
0 0 0 0 0 0 0 0 0 0 0 0 0 2 5 8 92 36 12 68 98 22 21 50 8 12 4 0 0 0 0 0 0 0 0 0 0 0 0 0 0 0 0 0 0
0 0 0 0 0 0 0 0 0 0 0 0 0 0 3 5 4 73 16 63 75 100 99 85 97 97 54 41 2 0 0 0 0 0 0 0 0 0 0 2 0 0 0 0 0
0 0 0 0 0 0 0 0 0 0 0 2 3 2 0 3 4 0 26 34 95 93 100 99 94 100 100 79 4 0 0 0 0 0 0 4 2 0 0 0 0 2 0 1 2
3 0 0 0 0 0 0 0 0 0 0 0 0 0 0 0 5 2 1 58 26 99 100 100 100 97 36 95 4 5 21 2 1 0 4 20 28 6 0 0 3 0 31 4 0
52 0 0 0 0 0 0 0 0 0 3 0 0 0 0 0 17 2 0 1 17 16 96 100 70 100 92 8 83 5 90 1 0 2 1 2 98 83 13 5 5 5 12 5 4
0 0 0 5 5 2 0 0 0 0 0 0 0 0 0 0 4 12 12 2 3 0 4 99 87 100 64 9 74 99 4 32 4 5 62 7 31 90 5 82 36 5 5 5 16
4 0 0 0 4 6 1 0 0 0 0 0 0 0 0 0 5 0 0 0 31 5 0 10 42 93 100 100 34 98 5 9 78 86 5 5 5 6 14 5 5 5 97 18 52
12 5 0 0 2 3 5 1 4 0 0 0 0 0 0 3 1 3 5 0 3 30 12 0 2 3 99 95 100 100 100 100 24 5 5 5 87 73 100 59 19 5 46 93 100
100 73 0 0 0 0 4 51 91 4 0 0 0 0 0 3 5 1 2 33 14 5 46 99 2 0 6 100 100 100 100 100 37 2 27 14 100 100 99 59 37 8 11 5 100
100 100 83 7 12 4 4 5 78 100 86 13 0 0 0 0 7 0 5 7 95 74 100 100 6 0 0 76 65 99 100 100 100 100 100 100 100 100 100 85 97 10 25 90 100
100 100 100 100 62 1 3 2 5 0 67 100 23 5 0 0 0 5 5 5 17 100 100 73 7 68 5 7 17 5 5 100 100 100 100 100 100 100 100 100 100 96 100 87 81
100 100 100 100 14 1 0 0 0 0 3 5 4 5 1 0 0 0 0 38 2 85 100 40 33 12 4 25 100 71 4 49 100 100 100 55 90 84 82 100 100 100 83 5 5